Vertical_Velocity
-1 -1 -1 -2 -2 -1 0 -0 -1 -1 -2 -0 -3 -2 -3 -2 -1 -0 -1 -2 -1 -2 -2 -2 -1 -0 -2 -5 0 -5 -3 -7 -6
-2 -2 -3 1 1 0 1 0 -1 -2 -2 -0 -2 -3 -3 -1 -2 -0 -1 -2 -2 -0 -1 -3 -0 -1 -2 -3 0 1 -2 -3 -3
-1 -1 1 0 -1 0 -0 -1 -1 -2 1 1 -0 -1 -2 0 -1 -2 -2 -3 -3 -2 -1 -0 -1 -0 0 -2 -2 -2 0 -1 2
1 -0 -0 -1 -1 -2 -4 -4 -2 -1 0 0 -0 -1 -0 -0 -1 -1 -0 -2 -1 -1 -1 -1 -0 -0 1 -1 1 -0 0 2 -1
0 -0 -1 -0 -2 -3 -3 1 1 1 0 -2 -3 -1 -2 -1 -0 1 -2 -0 0 -2 -0 -2 -1 -1 0 0 -1 2 0 0 1
-0 0 -2 -1 1 -0 -0 -1 0 -1 -2 -1 -1 -1 -1 -1 1 -1 -1 -2 -2 -1 -1 -2 -0 0 1 0 -1 0 -2 -1 0
-1 -1 1 0 -1 -1 -0 -1 -1 -1 -1 -1 -0 1 -0 -1 0 -2 -1 -1 -1 -2 -4 -1 -2 -1 0 -0 1 -0 0 -0 1
0 -1 -0 -1 -2 -3 -4 -4 -5 -4 -3 -3 -2 -3 -2 -2 -1 -3 -1 -3 -3 -1 -2 -1 -2 -1 1 1 1 -0 1 -1 2
0 -1 -3 -2 -3 -1 -1 2 3 3 2 2 2 2 2 0 -1 0 0 -1 -0 -1 -1 -1 -2 -1 0 1 2 2 2 2 -1
-1 -2 -0 2 1 -3 -3 -2 -1 -2 -1 -1 -1 -0 -0 -0 -0 -0 -2 -1 -1 -1 -1 1 -0 -1 -2 -2 0 2 2 3 2
0 1 -0 -4 -2 1 2 1 -0 -1 -1 0 0 -2 -0 0 -0 -1 -1 -2 1 1 -0 -0 -1 -1 -1 -1 -1 1 -0 -0 -0
-2 -2 -3 -1 5 1 -1 -2 2 1 0 -0 -1 2 -1 -1 -1 -1 0 1 -2 -2 1 1 2 1 -0 -1 -0 1 1 2 -0
-1 4 3 1 -1 2 2 -1 0 -1 -1 -1 -1 -0 0 1 1 3 -2 -1 4 -1 -3 1 1 3 2 -1 0 -0 2 1 2
1 2 3 0 2 4 -1 -0 0 -0 -3 -2 -1 0 -0 -0 -2 -2 -2 3 -1 -0 1 2 -2 -1 2 2 -1 -1 1 1 -2
1 3 2 2 2 1 1 0 -2 -2 -4 0 1 1 0 -2 -1 1 0 -2 -2 2 4 -0 0 -1 -0 0 0 -1 2 4 -0
1 2 1 -3 4 1 -1 -1 -0 -1 -4 -1 -2 4 1 3 1 -1 1 0 -0 2 1 2 4 4 2 5 -0 -2 -0 2 1
3 4 2 1 2 3 -1 -3 0 3 -2 -2 -3 7 16 -9 -3 -0 2 -0 -2 -0 -3 -1 3 4 4 2 3 1 -2 -1 0
-1 1 2 4 1 2 2 -0 -2 -1 8 1 -6 -6 -2 4 1 3 2 1 1 -2 1 -1 -2 2 4 6 1 10 1 -1 2
-1 -1 -2 1 1 4 1 3 3 -5 5 -1 -7 1 -6 -9 9 4 5 -1 4 1 -5 -7 -1 1 3 4 2 -2 -2 -0 0
2 -1 -2 0 -1 4 2 1 -2 -2 3 -5 -3 4 1 -1 -15 2 5 3 10 6 7 2 -2 -7 2 9 3 2 -0 3 1
Height
5871 5869 5868 5867 5865 5863 5861 5859 5856 5853 5851 5849 5848 5846 5843 5840 5837 5833 5830 5826 5823 5818 5814 5810 5806 5802 5798 5795 5794 5789 5786 5784 5783
5868 5867 5866 5865 5863 5860 5858 5854 5852 5849 5847 5845 5843 5841 5839 5836 5832 5829 5826 5823 5820 5815 5811 5807 5803 5799 5795 5793 5791 5789 5785 5783 5780
5866 5865 5864 5862 5860 5857 5853 5850 5847 5844 5842 5840 5839 5836 5834 5831 5828 5826 5822 5819 5815 5812 5807 5803 5800 5796 5793 5791 5788 5785 5781 5780 5778
5864 5863 5861 5859 5857 5854 5851 5847 5843 5840 5838 5836 5834 5832 5830 5827 5824 5821 5817 5814 5810 5807 5803 5799 5795 5793 5789 5787 5785 5782 5779 5778 5774
5860 5859 5858 5857 5854 5850 5847 5842 5839 5837 5834 5832 5830 5828 5825 5822 5819 5815 5811 5808 5805 5802 5797 5794 5791 5789 5787 5784 5782 5779 5776 5774 5771
5857 5856 5855 5853 5849 5846 5843 5840 5836 5834 5831 5829 5826 5824 5821 5817 5813 5810 5807 5803 5800 5797 5793 5790 5786 5783 5782 5780 5778 5776 5773 5770 5767
5854 5853 5851 5849 5846 5842 5839 5836 5833 5831 5828 5825 5822 5820 5816 5813 5810 5805 5802 5799 5795 5791 5788 5784 5781 5778 5776 5773 5772 5769 5768 5765 5762
5850 5848 5847 5844 5841 5838 5835 5833 5830 5827 5824 5821 5818 5815 5811 5808 5804 5800 5797 5793 5789 5786 5782 5778 5774 5771 5769 5767 5764 5762 5760 5758 5755
5845 5844 5842 5839 5836 5834 5831 5829 5826 5824 5821 5818 5814 5811 5808 5804 5800 5797 5793 5789 5785 5780 5776 5772 5768 5764 5761 5759 5757 5755 5753 5751 5749
5840 5839 5837 5834 5832 5829 5826 5824 5821 5818 5815 5812 5809 5806 5802 5799 5795 5791 5787 5782 5779 5775 5771 5767 5763 5759 5755 5751 5748 5746 5744 5742 5739
5834 5832 5830 5828 5825 5823 5820 5817 5815 5813 5809 5806 5803 5800 5796 5793 5789 5785 5781 5776 5772 5767 5763 5759 5755 5752 5748 5744 5740 5737 5735 5732 5729
5827 5826 5823 5821 5820 5817 5814 5811 5809 5806 5803 5800 5796 5793 5789 5785 5781 5778 5773 5769 5763 5758 5754 5750 5746 5742 5739 5736 5732 5729 5726 5723 5719
5820 5818 5817 5815 5813 5811 5808 5805 5802 5799 5795 5792 5789 5785 5781 5777 5773 5769 5764 5760 5755 5750 5745 5741 5737 5732 5727 5725 5723 5719 5716 5712 5709
5813 5812 5810 5807 5806 5805 5801 5797 5793 5791 5787 5783 5779 5775 5772 5768 5764 5759 5754 5750 5746 5741 5735 5731 5726 5720 5716 5712 5710 5707 5704 5702 5700
5806 5805 5803 5800 5798 5795 5792 5789 5785 5782 5778 5774 5770 5765 5762 5758 5754 5749 5744 5740 5735 5730 5726 5721 5716 5711 5705 5700 5696 5694 5692 5688 5687
5797 5796 5794 5791 5789 5786 5781 5777 5775 5772 5767 5763 5759 5755 5751 5749 5743 5738 5733 5730 5724 5719 5715 5710 5706 5700 5694 5688 5683 5679 5678 5677 5674
5788 5787 5784 5781 5778 5775 5771 5767 5764 5761 5756 5751 5747 5744 5743 5736 5731 5726 5722 5719 5712 5708 5701 5697 5694 5689 5683 5676 5671 5667 5665 5664 5662
5778 5776 5774 5773 5769 5766 5761 5756 5752 5748 5744 5738 5734 5728 5727 5723 5722 5717 5712 5708 5703 5695 5688 5683 5679 5675 5670 5664 5659 5655 5652 5651 5650
5768 5765 5761 5758 5755 5752 5747 5743 5739 5735 5730 5724 5720 5716 5712 5707 5704 5702 5698 5692 5689 5682 5675 5670 5665 5661 5656 5652 5648 5643 5640 5640 5639
5758 5753 5749 5745 5740 5738 5734 5729 5724 5720 5715 5711 5705 5702 5698 5696 5689 5686 5684 5677 5674 5669 5662 5659 5653 5647 5643 5639 5636 5632 5628 5628 5627